HG8GL-6 Weather Reports


time (UTC)temp
F
wind
direction
speed
knots
gust
knots
rain 1hr
in
rain 24hr
in
rain mn
in
humidity
%
barometer
mb
20260504192213 61 158 0.0 0.0 0.00 0.00 0.00 35 1016.0
20260504191213 61 158 0.0 0.0 0.00 0.00 0.00 34 1016.0
20260504190213 62 158 0.0 0.0 0.00 0.00 0.00 34 1016.0
20260504185213 63 158 0.0 0.0 0.00 0.00 0.00 33 1016.0
20260504184213 64 158 0.0 0.0 0.00 0.00 0.00 31 1016.0
20260504183213 65 165 0.0 0.0 0.00 0.00 0.00 30 1015.0
20260504182213 66 158 0.0 0.0 0.00 0.00 0.00 28 1016.0
20260504181213 67 158 0.0 0.0 0.00 0.00 0.00 27 1016.0
20260504180213 68 158 0.0 0.0 0.00 0.00 0.00 26 1016.0
20260504175213 69 163 0.0 0.0 0.00 0.00 0.00 26 1015.0
20260504174143 70 158 0.0 0.0 0.00 0.00 0.00 25 1015.0
20260504173143 71 158 0.0 0.0 0.00 0.00 0.00 25 1015.0
20260504172142 73 158 0.0 0.0 0.00 0.00 0.00 24 1015.0
20260504171112 74 158 0.0 0.0 0.00 0.00 0.00 23 1015.0
20260504150712 81 147 0.0 0.0 0.00 0.00 0.00 20 1016.0
20260504140512 82 145 0.0 0.0 0.00 0.00 0.00 21 1016.0
20260504130342 82 138 0.0 0.0 0.00 0.00 0.00 21 1017.0
20260504120112 81 158 0.0 0.0 0.00 0.00 0.00 22 1017.0
20260504081341 73 154 0.0 0.0 0.00 0.00 0.00 32 1020.0
20260504080311 72 168 0.0 0.0 0.00 0.00 0.00 32 1020.0
20260504070111 66 181 0.0 0.0 0.00 0.00 0.00 40 1020.0
20260504045741 45 158 0.0 0.0 0.00 0.00 0.00 66 1020.0
20260504044711 45 158 0.0 0.0 0.00 0.00 0.00 66 1020.0
20260504043611 43 221 0.0 0.0 0.00 0.00 0.00 67 1020.0
20260504042541 43 248 0.0 0.0 0.00 0.00 0.00 67 1019.9
20260504041541 43 248 0.0 0.0 0.00 0.00 0.00 66 1019.0
20260504040511 43 248 0.0 0.0 0.00 0.00 0.00 66 1019.0
20260504035511 43 248 0.0 0.0 0.00 0.00 0.00 66 1019.0
20260504034441 43 158 0.0 0.0 0.00 0.00 0.00 65 1019.0
20260504033411 43 158 0.0 0.0 0.00 0.00 0.00 65 1020.0
20260504032411 43 158 0.0 0.0 0.00 0.00 0.00 63 1019.0
20260504031341 43 158 0.0 0.0 0.00 0.00 0.00 63 1019.0
20260504030341 43 248 0.0 0.0 0.00 0.00 0.00 62 1020.0
20260504025341 44 248 0.0 0.0 0.00 0.00 0.00 61 1019.0
20260504024311 44 248 0.0 0.0 0.00 0.00 0.00 60 1019.0
20260504023241 45 248 0.0 0.0 0.00 0.00 0.00 58 1020.0
20260504022211 45 248 0.0 0.0 0.00 0.00 0.00 57 1019.0
20260504021141 45 248 0.0 0.0 0.00 0.00 0.00 56 1019.0
20260504020111 45 248 0.0 0.0 0.00 0.00 0.00 56 1019.0
20260504015111 45 202 0.0 0.0 0.00 0.00 0.00 56 1019.0
20260504014111 46 248 0.0 0.0 0.00 0.00 0.00 55 1019.0
20260504013111 46 248 0.0 0.0 0.00 0.00 0.00 54 1019.0
20260504012111 46 248 0.0 0.0 0.00 0.00 0.00 53 1019.0
20260504011111 46 248 0.0 0.0 0.00 0.00 0.00 52 1019.0
20260504010110 47 158 0.0 0.0 0.00 0.00 0.00 52 1019.0
20260504005110 47 158 0.0 0.0 0.00 0.00 0.00 51 1019.0
20260504004110 48 158 0.0 0.0 0.00 0.00 0.00 51 1019.0
20260504003110 48 202 0.0 0.0 0.00 0.00 0.00 49 1019.0
20260504002110 49 225 0.0 0.0 0.00 0.00 0.00 49 1019.0
20260504001110 49 225 0.0 0.0 0.00 0.00 0.00 49 1019.0
20260504000040 50 225 0.0 0.0 0.00 0.00 0.00 48 1020.0
20260503235010 50 225 0.0 0.0 0.00 0.00 0.00 48 1019.0
20260503233940 51 246 0.0 0.0 0.00 0.00 0.00 47 1019.0
20260503232940 51 227 0.0 0.0 0.00 0.00 0.00 47 1019.0
20260503231910 51 224 0.0 0.0 0.00 0.00 0.00 47 1019.0
20260503230840 51 210 0.0 0.0 0.00 0.00 0.00 47 1019.0
20260503225840 52 209 0.0 0.0 0.00 0.00 0.00 47 1019.0
20260503224810 52 213 0.0 0.0 0.00 0.00 0.00 47 1019.0
20260503223740 52 233 0.0 0.0 0.00 0.00 0.00 46 1020.0
20260503222740 53 202 0.0 0.0 0.00 0.00 0.00 46 1020.0
20260503221710 53 229 0.0 0.0 0.00 0.00 0.00 46 1019.0
20260503220710 52 206 0.0 0.0 0.00 0.00 0.00 46 1020.0
20260503215710 52 183 0.0 0.0 0.00 0.00 0.00 46 1020.0
20260503214640 52 178 0.0 0.0 0.00 0.00 0.00 46 1020.0
20260503213610 52 189 0.0 0.0 0.00 0.00 0.00 46 1019.0
20260503212540 53 183 0.0 0.0 0.00 0.00 0.00 46 1019.1
20260503211510 53 202 0.0 0.0 0.00 0.00 0.00 46 1020.0
20260503210440 53 188 0.0 0.0 0.00 0.00 0.00 46 1020.0
20260503205440 53 181 0.0 0.0 0.00 0.00 0.00 46 1019.0
20260503204410 53 185 0.0 0.0 0.00 0.00 0.00 45 1019.0
20260503203340 53 161 0.0 0.0 0.00 0.00 0.00 45 1019.0
20260503202310 53 158 0.0 0.0 0.00 0.00 0.00 45 1019.0
20260503201310 54 158 0.0 0.0 0.00 0.00 0.00 44 1019.0
20260503200240 54 158 0.0 0.0 0.00 0.00 0.00 44 1020.0
20260503195210 55 156 0.0 0.0 0.00 0.00 0.00 43 1019.0
20260503194140 55 135 0.0 0.0 0.00 0.00 0.00 42 1019.0
20260503193110 56 158 0.0 0.0 0.00 0.00 0.00 42 1019.0